LA1KNX Weather Reports


time (UTC)temp
F
wind
direction
speed
knots
gust
knots
rain 1hr
in
rain 24hr
in
rain mn
in
humidity
%
barometer
mb
20260507233003 38 351 2.6 0.0 0.00 0.00 0.00 61 1018.2
20260507230003 39 351 2.6 0.0 0.00 0.00 0.00 61 1018.2
20260507224503 40 351 2.6 0.0 0.00 0.00 0.00 61 1018.2
20260507223003 40 247 4.3 0.0 0.00 0.00 0.00 61 1018.2
20260507221502 40 247 4.3 0.0 0.00 0.00 0.00 61 1018.2
20260507220005 40 247 4.3 0.0 0.00 0.00 0.00 61 1018.2
20260507214502 41 241 4.3 0.0 0.00 0.00 0.00 61 1018.2
20260507213003 41 241 4.3 0.0 0.00 0.00 0.00 61 1018.2
20260507211501 41 241 4.3 0.0 0.00 0.00 0.00 61 1018.2
20260507210002 43 241 4.3 0.0 0.00 0.00 0.00 61 1018.2
20260507204502 44 241 4.3 0.0 0.00 0.00 0.00 61 1018.2
20260507203003 45 222 4.3 0.0 0.00 0.00 0.00 61 1018.2
20260507201503 46 222 4.3 0.0 0.00 0.00 0.00 61 1018.2
20260507200003 46 222 4.3 0.0 0.00 0.00 0.00 61 1018.2
20260507193003 47 204 5.2 0.0 0.00 0.00 0.00 61 1018.2
20260507191501 47 204 5.2 0.0 0.00 0.00 0.00 61 1018.2
20260507190003 48 204 5.2 0.0 0.00 0.00 0.00 61 1018.2
20260507184503 49 204 5.2 0.0 0.00 0.00 0.00 61 1018.2
20260507183005 49 154 4.3 0.0 0.00 0.00 0.00 61 1018.2
20260507181502 50 154 4.3 0.0 0.00 0.00 0.00 61 1018.2
20260507180005 50 130 4.3 0.0 0.00 0.00 0.00 61 1018.2
20260507174502 50 130 4.3 0.0 0.00 0.00 0.00 61 1018.2
20260507173002 51 130 4.3 0.0 0.00 0.00 0.00 61 1018.2
20260507171501 51 130 4.3 0.0 0.00 0.00 0.00 61 1018.2
20260507170005 51 130 4.3 0.0 0.00 0.00 0.00 61 1018.2
20260507164501 51 125 4.3 0.0 0.00 0.00 0.00 61 1018.2
20260507163002 51 125 4.3 0.0 0.00 0.00 0.00 61 1018.2
20260507161502 51 125 4.3 0.0 0.00 0.00 0.00 61 1018.2
20260507160002 51 119 5.2 0.0 0.00 0.00 0.00 61 1018.2
20260507154502 51 119 5.2 0.0 0.00 0.00 0.00 61 1018.2
20260507153002 51 119 5.2 0.0 0.00 0.00 0.00 61 1018.2
20260507151502 51 119 5.2 0.0 0.00 0.00 0.00 61 1018.2
20260507150002 51 119 5.2 0.0 0.00 0.00 0.00 61 1018.2
20260507144502 51 116 5.2 0.0 0.00 0.00 0.00 61 1018.2
20260507143003 51 116 5.2 0.0 0.00 0.00 0.00 61 1018.2
20260507141502 51 116 5.2 0.0 0.00 0.00 0.00 61 1018.2
20260507140002 51 114 4.3 0.0 0.00 0.00 0.00 61 1018.2
20260507134502 51 114 4.3 0.0 0.00 0.00 0.00 61 1018.2
20260507133001 51 114 4.3 0.0 0.00 0.00 0.00 61 1018.2
20260507131506 51 114 4.3 0.0 0.00 0.00 0.00 61 1018.2
20260507130002 51 114 4.3 0.0 0.00 0.00 0.00 61 1018.2
20260507124502 51 109 2.6 0.0 0.00 0.00 0.00 61 1018.2
20260507123004 52 109 2.6 0.0 0.00 0.00 0.00 61 1018.2
20260507121502 52 81 2.6 0.0 0.00 0.00 0.00 61 1018.2
20260507120005 51 81 2.6 0.0 0.00 0.00 0.00 61 1018.2
20260507114502 52 81 2.6 0.0 0.00 0.00 0.00 61 1018.2
20260507113002 51 81 2.6 0.0 0.00 0.00 0.00 61 1018.2
20260507111503 51 81 2.6 0.0 0.00 0.00 0.00 61 1018.2
20260507110003 51 359 2.6 0.0 0.00 0.00 0.00 61 1018.2
20260507103002 52 359 2.6 0.0 0.00 0.00 0.00 61 1018.2
20260507101501 54 2 3.5 0.0 0.00 0.00 0.00 61 1018.2
20260507100004 55 2 3.5 0.0 0.00 0.00 0.00 61 1018.2
20260507094503 56 2 3.5 0.0 0.00 0.00 0.00 61 1018.2
20260507093002 58 2 3.5 0.0 0.00 0.00 0.00 61 1018.2
20260507091501 59 2 3.5 0.0 0.00 0.00 0.00 61 1018.2
20260507090006 61 2 3.5 0.0 0.00 0.00 0.00 61 1018.2
20260507084502 60 2 3.5 0.0 0.00 0.00 0.00 61 1018.2
20260507083004 62 2 3.5 0.0 0.00 0.00 0.00 61 1018.2
20260507081501 61 4 3.5 0.0 0.00 0.00 0.00 61 1018.2
20260507080004 61 4 3.5 0.0 0.00 0.00 0.00 61 1018.2
20260507074502 59 4 3.5 0.0 0.00 0.00 0.00 61 1018.2
20260507073004 57 4 3.5 0.0 0.00 0.00 0.00 61 1018.2
20260507071504 54 4 3.5 0.0 0.00 0.00 0.00 61 1018.2
20260507070003 51 4 3.5 0.0 0.00 0.00 0.00 61 1018.2
20260507064501 43 4 3.5 0.0 0.00 0.00 0.00 61 1018.2
20260507063002 38 26 0.9 0.0 0.00 0.00 0.00 61 1018.2
20260507061502 38 26 0.9 0.0 0.00 0.00 0.00 61 1018.2
20260507060002 37 26 0.9 0.0 0.00 0.00 0.00 61 1018.2
20260507054504 36 202 1.7 0.0 0.00 0.00 0.00 61 1018.2
20260507053003 35 202 1.7 0.0 0.00 0.00 0.00 61 1018.2
20260507051503 34 202 1.7 0.0 0.00 0.00 0.00 61 1018.2
20260507050005 34 202 1.7 0.0 0.00 0.00 0.00 61 1018.2
20260507044503 33 202 1.7 0.0 0.00 0.00 0.00 61 1018.2
20260507043002 33 42 1.7 0.0 0.00 0.00 0.00 61 1018.2
20260507041505 33 42 1.7 0.0 0.00 0.00 0.00 61 1018.2
20260507040003 33 336 3.5 0.0 0.00 0.00 0.00 61 1018.2
20260507034501 33 336 3.5 0.0 0.00 0.00 0.00 61 1018.2
20260507033002 33 336 3.5 0.0 0.00 0.00 0.00 61 1018.2
20260507031503 33 336 3.5 0.0 0.00 0.00 0.00 61 1018.2
20260507030003 33 336 3.5 0.0 0.00 0.00 0.00 61 1018.2
20260507024501 33 336 3.5 0.0 0.00 0.00 0.00 61 1018.2
20260507023005 34 312 7.0 0.0 0.00 0.00 0.00 61 1018.2
20260507021501 34 312 7.0 0.0 0.00 0.00 0.00 61 1018.2
20260507020003 34 309 7.0 0.0 0.00 0.00 0.00 61 1018.2
20260507014502 35 309 7.0 0.0 0.00 0.00 0.00 61 1018.2
20260507013003 35 309 7.0 0.0 0.00 0.00 0.00 61 1018.2
20260507010005 35 309 7.0 0.0 0.00 0.00 0.00 61 1018.2
20260507004502 36 308 7.0 0.0 0.00 0.00 0.00 61 1018.2
20260507003003 36 308 7.0 0.0 0.00 0.00 0.00 61 1018.2
20260507001501 37 308 7.0 0.0 0.00 0.00 0.00 61 1018.2
20260507000003 37 309 7.8 0.0 0.00 0.00 0.00 61 1018.2
20260506234502 38 309 7.8 0.0 0.00 0.00 0.00 61 1018.2